Houlton, ME

2:23 PM EDT on March 29, 2017 (GMT -0400)
Houlton International

Weather History for KHUL - October, 2012

Change the Weather History Date:

Saturday, October 13, 2012

  Actual Average Record
Temperature  
Mean Temperature 36 °F 44 °F  
Max Temperature 45 °F 55 °F 83 °F (1938)
Min Temperature 26 °F 34 °F 19 °F (1972)
Degree Days  
Heating Degree Days 29 21  
Month to date heating degree days 231 241  
Since 1 July heating degree days 557 709  
Cooling Degree Days 0 0  
Month to date cooling degree days 0 0  
Year to date cooling degree days 277 191  
Moisture  
Dew Point 22 °F    
Average Humidity 61    
Maximum Humidity 85    
Minimum Humidity 36    
Precipitation  
Precipitation 0.00 in 0.12 in 1.77 in (1948)
Month to date precipitation 2.62 1.51  
Year to date precipitation 36.41 30.53  
Sea Level Pressure  
Sea Level Pressure 30.25 in    
Wind  
Wind Speed 8 mph (West)    
Max Wind Speed 20 mph    
Max Gust Speed 29 mph    
Visibility 10 miles    
Events      
T = Trace of Precipitation, MM = Missing Value Source: NWS Daily Summary

Daily Weather History Graph

Daily Weather History Graph

Search for Another Location

Airport or City:

Trip Planner

Search our weather history database for the weather conditions in past years. The results will help you decide how hot, cold, wet, or windy it might be!

Date:

Astronomy

Oct. 13, 2012 Rise Set
Actual Time 6:46 AM EDT 5:47 PM EDT
Civil Twilight 6:15 AM EDT 6:17 PM EDT
Nautical Twilight 5:41 AM EDT 6:52 PM EDT
Astronomical Twilight 5:06 AM EDT 7:27 PM EDT
Moon 4:26 AM EDT (10/13) 4:32 PM EDT (10/13)
Length of Visible Light 12h 01m
Length of Day
11h 01m
Waning Crescent, 5% of the Moon is Illuminated
Oct 13
Waning Crescent
Oct 15
New
Oct 21
First Quarter
Oct 29
Full
Nov 6
Last Quarter

Hourly Weather History & Observations

Time (EDT) Temp. Windchill Dew Point Humidity Pressure Visibility Wind Dir Wind Speed Gust Speed Precip Events Conditions
12:53 AM 30.9 °F - 24.1 °F 76% 30.18 in 10.0 mi Calm Calm - N/A   Clear
1:53 AM 30.0 °F 26.5 °F 24.1 °F 79% 30.19 in 10.0 mi WNW 3.5 mph - N/A   Clear
2:53 AM 30.0 °F 25.2 °F 24.1 °F 79% 30.20 in 10.0 mi SW 4.6 mph - N/A   Clear
3:53 AM 28.9 °F 23.9 °F 23.0 °F 78% 30.21 in 10.0 mi West 4.6 mph - N/A   Clear
4:53 AM 28.9 °F 21.9 °F 24.1 °F 82% 30.22 in 10.0 mi West 6.9 mph - N/A   Clear
5:53 AM 28.9 °F 22.8 °F 23.0 °F 78% 30.23 in 10.0 mi WSW 5.8 mph - N/A   Clear
6:53 AM 28.9 °F 21.1 °F 23.0 °F 78% 30.25 in 10.0 mi West 8.1 mph - N/A   Clear
7:53 AM 30.9 °F 24.3 °F 24.1 °F 76% 30.26 in 10.0 mi West 6.9 mph - N/A   Clear
8:53 AM 34.0 °F 26.0 °F 24.1 °F 67% 30.27 in 10.0 mi West 10.4 mph - N/A   Clear
9:53 AM 37.0 °F 28.9 °F 23.0 °F 57% 30.27 in 10.0 mi West 12.7 mph 20.7 mph N/A   Clear
10:53 AM 39.9 °F 32.9 °F 21.9 °F 49% 30.26 in 10.0 mi WNW 11.5 mph 18.4 mph N/A   Scattered Clouds
11:53 AM 41.0 °F 34.3 °F 21.0 °F 45% 30.25 in 10.0 mi WNW 11.5 mph 21.9 mph N/A   Partly Cloudy
12:53 PM 43.0 °F 35.4 °F 19.9 °F 40% 30.23 in 10.0 mi WNW 16.1 mph 20.7 mph N/A   Clear
1:53 PM 44.1 °F 36.8 °F 19.0 °F 37% 30.23 in 10.0 mi WNW 16.1 mph 21.9 mph N/A   Partly Cloudy
2:53 PM 44.1 °F 37.4 °F 19.0 °F 37% 30.23 in 10.0 mi West 13.8 mph 19.6 mph N/A   Partly Cloudy
3:53 PM 44.1 °F 37.4 °F 19.0 °F 37% 30.24 in 10.0 mi West 13.8 mph 23.0 mph N/A   Partly Cloudy
4:53 PM 42.1 °F 35.2 °F 18.0 °F 38% 30.25 in 10.0 mi West 12.7 mph 19.6 mph N/A   Clear
5:53 PM 37.9 °F 34.4 °F 18.0 °F 45% 30.27 in 10.0 mi West 4.6 mph - N/A   Clear
6:53 PM 35.1 °F 31.0 °F 19.0 °F 52% 30.29 in 10.0 mi West 4.6 mph - N/A   Clear
7:53 PM 28.4 °F 23.3 °F 23.0 °F 80% 30.27 in 10.0 mi SSW 4.6 mph - N/A   Clear
8:53 PM 30.0 °F 26.5 °F 19.9 °F 66% 30.30 in 10.0 mi South 3.5 mph - N/A   Clear
9:53 PM 28.4 °F 24.6 °F 23.0 °F 80% 30.27 in 10.0 mi SSW 3.5 mph - N/A   Clear
10:53 PM 28.0 °F 24.2 °F 21.9 °F 78% 30.27 in 10.0 mi South 3.5 mph - N/A   Clear
11:53 PM 28.9 °F - 25.0 °F 85% 30.26 in 10.0 mi Calm Calm - N/A   Clear